www.pogodaiklimat.ru

Погода и климат >> Архив погоды >> Россия >> Оренбургская область >> Троицкое Т


ПОГОДА в Троицком Т

  • Прогноз погоды в Троицком Т
  • Монитор погоды в Троицком Т

АРХИВ ПОГОДЫ в Троицком Т

Время (UTC), дата Ветер
(напр.,м/с)
 
Видим.   Явления Облачность Т
(С)
Тd
(С)
f
(%)
Тe
(С)
Тes
(С)
Комфортность P
(гПа)
Po
(гПа)
Тmin
(С)
Tmax
(С)
R
(мм)
R24
(мм)
S
(см)
00 20.03 штиль 0 10 км 9/9 720 м
[Sc]
+0.5 -5.9 62 -0 -0 1026.8 997.9
03 20.03 СВ 1 20 км 9/9 750 м
[Sc]
-0.4 -5.0 71 -2 -2 1026.6 997.6 -1.2 59
06 20.03 С 2 20 км 9/9 720 м
[Sc]
+2.1 -6.1 55 -1 0 1025.9 997.2
09 20.03 Ю 1 20 км 3/3 600 м
[Sc]
+6.0 -5.1 45 +6 +12 1024.5 996.2
12 20.03 З 2 20 км ясно +5.1 -2.6 57 +3 +6 1024.0 995.7
15 20.03 штиль 0 20 км ясно -0.8 -4.4 77 -2 -2 1024.1 995.2 +7.4
18 20.03 СЗ 2 10 км ясно -2.9 -5.0 85 -7 -7 1024.2 995.0
21 20.03 СЗ 2 10 км ясно -5.7 -6.3 96 -10 -10 1023.8 994.4
00 21.03 СЗ 1 10 км ясно -8.2 -9.1 93 -11 -11 1023.2 993.5
03 21.03 СЗ 1 20 км ясно -9.0 -10.0 92 -11 -11 1022.7 992.9 -9.4 59
06 21.03 штиль 0 10 км 8/8 700 м
[Sc]
-1.5 -7.3 65 -2 -1 1021.9 992.9
09 21.03 ЮВ 1 10 км 8/8 720 м
[Sc]
+0.8 -5.1 65 -1 +1 1020.8 992.1
12 21.03 Ю 1 10 км 9/9 800 м
[Sc]
+2.2 -3.1 68 +1 +1 1019.5 991.0
15 21.03 СЗ 1 10 км 9/9 720 м
[Sc]
+1.5 -5.6 59 0 0 1019.2 990.6 +4.0
18 21.03 штиль 0 10 км 10/10 700 м
[Sc]
+0.3 -3.5 76 -1 -1 1019.3 990.6
21 21.03 ЮЗ 1 10 км 9/9 720 м
[Sc]
-1.7 -3.5 87 -4 -4 1019.0 990.1
00 22.03 З 1 10 км 4/0
[Ac cast]
-3.5 -4.3 94 -6 -6 1018.8 989.7
03 22.03 штиль 0 20 км 4/4 600 м
[Sc]
-5.9 -6.7 94 -7 -7 1018.8 989.4 -6.1 57
06 22.03 Ю 1 20 км 3/0
[Ci sp]
+2.4 -4.6 60 +1 +8 1018.1 989.7
09 22.03 Ю 1 20 км ясно +3.5 -3.6 60 +3 +13 опасность
простуды
1017.3 989.0
12 22.03 ЮВ 1 20 км ясно +4.6 -4.9 50 +4 +7 1016.2 988.0
15 22.03 штиль 0 20 км ясно -1.9 -6.5 71 -3 -3 1016.6 987.8 +5.3
18 22.03 СЗ 1 10 км ясно -4.1 -7.1 80 -6 -6 1016.6 987.5
21 22.03 штиль 0 10 км ясно -6.2 -8.9 81 -7 -7 1016.4 987.1
00 23.03 СЗ 1 10 км 1/0
[Ci sp]
-8.0 -9.8 87 -10 -10 1016.4 986.9
03 23.03 СЗ 1 20 км 9/3 600 м
[Sc Ci]
-7.1 -9.4 84 -9 -9 1016.5 987.1 -9.0 54
06 23.03 штиль 0 20 км 9/3 600 м
[Sc Ci]
+1.5 -5.8 58 +1 +6 1016.5 988.0
09 23.03 Ю 1 20 км 9/6 800 м
[Sc Ci]
+2.8 -2.8 67 +2 +5 1017.5 989.1
12 23.03 ЮЗ 2 20 км 3/0
[Ci fib]
+3.4 -1.9 68 +1 +4 1018.6 990.3
15 23.03 ЮЗ 2 20 км 9/9 660 м
[Cb cap]
+0.7 0.0 95 -3 -3 1020.5 991.9 +6.6
18 23.03 штиль 0 10 км 10/10 700 м
[Sc]
-0.5 -2.2 88 -2 -2 1021.7 992.9
21 23.03 В 1 10 км 10/10 660 м
[Sc]
-1.6 -2.9 91 -4 -4 1022.3 993.3
00 24.03 СВ 1 10 км 10/10 630 м
[Cb cap]
-1.8 -2.1 98 -4 -4 1022.8 993.8
03 24.03 С 1 20 км 9/3 600 м
[Sc Ci]
-3.7 -4.6 93 -6 -6 1022.8 993.6 -3.7 53
06 24.03 штиль 0 20 км 9/0
[Ci]
+2.1 -3.5 66 +1 +9 опасность
простуды
1022.4 993.8
09 24.03 Ю 1 20 км 9/0
[Ci]
+4.9 -4.4 51 +4 +13 опасность
простуды
1020.9 992.6
12 24.03 штиль 0 20 км 10/0
[Cs]
+3.3 -2.6 65 +3 +6 1019.7 991.4
15 24.03 штиль 0 20 км 9/3 600 м
[Cb cap Ac und Ci fib]
+0.2 -3.2 78 -1 -1 1018.0 989.4 +6.8
18 24.03 В 1 10 км 9/0
[Ac und]
-0.0 -3.3 78 -2 -2 1016.6 988.0
21 24.03 ЮВ 2 10 км 9/0
[Ac trans Ci]
+3.5 -0.1 77 +1 +1 1013.4 985.2
00 25.03 ЮВ 4 10 км в посл. час ливневой дождь 9/9 720 м
[Cb cap]
+4.0 +0.7 79 -0 -0 1010.5 982.4
03 25.03 Ю 3 20 км в посл. час ливневой дождь 10/5 600 м
[Cb cap Ac lent]
+3.9 +1.1 82 0 0 1006.8 978.8 -1.0 0.4 52
06 25.03 Ю 7-12
{12}
10 км слаб. дождь 10/10 360 м
[Sc]
+2.9 +2.3 96 -4 -4 1005.8 977.8
09 25.03 ЮЗ 4
{12}
2000 м снег {дождь} 10/10 150 м
[Frnb Ns]
+0.6 -0.0 96 -5 -5 1009.2 980.9
12 25.03 Ю 4 20 км {снег, дождь} 10/10 300 м
[Sc]
+1.2 +0.9 98 -4 -4 1009.5 981.2
15 25.03 ЮЗ 4 20 км 8/8 600 м
[Cb cap]
-0.1 -1.5 90 -6 -6 1010.7 982.2 +4.1 11
18 25.03 Ю 4 10 км в посл. час ливневой снег 10/10 720 м
[Cb cap]
+0.2 -0.9 92 -5 -5 1011.0 982.5
21 25.03 ЮЗ 5
{10}
10 км {ливн. осадки} 9/9 700 м
[Cb cap]
+0.1 -1.3 90 -6 -6 1012.1 983.7
00 26.03 ЮЗ 6
{10}
10 км {ливн. осадки} 9/9 700 м
[Cb cap]
-0.4 -1.6 92 -7 -7 1013.7 985.1
03 26.03 ЮЗ 3
{10}
20 км 8/8 500 м
[Cb cap]
-1.4 -2.7 91 -6 -6 1016.1 987.4 -1.7 0.8 51
06 26.03 ЮЗ 3 10 км 9/9 300 м
[Cb cap]
+0.3 -1.5 88 -4 -4 1018.6 989.9
09 26.03 ЮЗ 3 20 км 4/3 600 м
[Cb cap Ci sp]
+2.8 -2.2 70 -1 +4 1019.8 991.3
12 26.03 ЮЗ 2 20 км 3/1 600 м
[Cu hum Ci fib]
+3.3 -2.3 67 +1 +4 1021.2 992.8
15 26.03 ЮВ 1 20 км 3/0
[Ci]
-2.0 -4.6 82 -4 -4 1022.4 993.4 +4.6
18 26.03 штиль 0 10 км ясно -5.3 -6.1 94 -6 -6 1023.6 994.2

 

Местоположение метеостанции Троицкое Т (Оренбургская область, Россия): широта 52.33 долгота 56.37 высота над уровнем моря 229 м.

В архиве по умолчанию представлена погода в Троицком Т за последнюю неделю. Архивные данные за месяц целиком и за предыдущие месяцы, начиная с января 2011 года, Вы можете получить, выбрав интересующий диапазон дат из раскрывающегося списка и нажав кнопку "Ввод!".


*Определитесь, кто Вы:
робот инопланетянин человек

Внимание! Время в таблицах - всемирное. Для получения местного времени необходимо прибавить поправку, которая равна 5 ч.

Смотрите также архив погоды в соседних городах и на ближайших метеорологических станциях:

Погода в Кумертау (Башкирия, Россия) (62 км)
Погода в Зилаире (Башкирия, Россия) (71 км)
Погода в Шульган-Таше (Башкирия, Россия) (93 км)
Погода в Татарской Каргале (Оренбургская область, Россия) (95 км)
Погода в Беляевке (Оренбургская область, Россия) (101 км)
Погода в Старосубхангулово (Башкирия, Россия) (112 км)
Погода в Оренбурге (Оренбургская область, Россия) (113 км)
Погода в Салавате (Башкирия, Россия) (117 км)
Погода в Кувандыке (Оренбургская область, Россия) (118 км)
Погода в Федоровке (Башкирия, Россия) (122 км)

Пояснения к столбцам:

Ветер - указаны скорость ветра в м/с - средняя за 10 мин, порывы в срок и между сроками (в фигурных скобках) и направление, откуда дует ветер: С - северный, СВ - северо-восточный, В - восточный, ЮВ - юго-восточный, Ю - южный, ЮЗ - юго-западный, З - западный, СЗ - северо-западный.
Видимость - горизонтальная дальность видимости в метрах или километрах. При видимости от 1 до 10 км при отсутствии осадков обычно наблюдается дымка, при ухудшении видимости до 1 км и менее - туман. В сухую погоду видимость может ухудшаться дымом, пылью или мглою.
Явления - указаны атмосферные явления, наблюдавшиеся в срок или в последний час перед сроком; фигурными скобками обозначены явления, наблюдавшиеся между сроками (за 1-3 часа до срока); квадратными скобками обозначены град или гололедные отложения с указанием их диаметра в мм.
Облачность - указаны через наклонную черту общая и нижняя облачность в баллах и высота нижней границы облаков в метрах; квадратными скобками обозначены формы облаков: Ci - перистые, Cs - перисто-слоистые, Cc - перисто-кучевые, Ac - высококучевые, As - высокослоистые, Sc - слоисто-кучевые, Ns - слоисто-дождевые, Cu - кучевые, Cb - кучево-дождевые. Подробнее классификацию облаков см. в Атласе облаков (PDF).
T - Температура воздуха - температура, измеренная на высоте 2 м над землей.
Td - Температура точки росы - температура, при понижении до которой содержащийся в воздухе водяной пар достигнет насыщения.
f - Относительная влажность воздуха - влажноcть воздуха, измеренная на высоте 2 м над землей.
Te - Эффективная температура - температура, которую ощущает одетый по сезону человек в тени. Характеристика душности погоды. При расчете учитывается влияние влажности воздуха и скорости ветра на теплоощущения человека.
Tes - Эффективная температура на солнце - температура, которую ощущает человек, с поправкой на солнечный нагрев. Характеристика знойности погоды. Зависит от высоты солнца над горизонтом, облачности и скорости ветра. Ночью, в пасмурную погоду, а также при ветре 12 м/с и более поправка равна нулю.
P - Атмосферное давление - приведенное к уровню моря атмосферное давление.
Po - Атмосферное давление - измеренное на уровне метеостанции атмосферное давление.
Tmin - Минимальная температура - минимум температуры воздуха на высоте 2 м над землей.
Tmax - Максимальная температура - максимум температуры воздуха на высоте 2 м над землей.
R - Количество осадков - Количество выпавших осадков за период времени, мм. При наведении курсора мыши на число - период времени, за который выпало указанное количество осадков.
R24 - Количество осадков - Количество выпавших осадков за 24 часа, мм.
S - Снежный покров - Высота снежного покрова, см. При наведении курсора мыши на число - состояние снежного покрова и степень покрытия местности в баллах.